GEFSCGP_con_prob3kmehi_198.txt.gz
EHI
0 0 0 0 0 0 0 0 0 0 0 0 0 0 1 2 3 5 10 15 18 20 22 25 29 32 34 36 37 37 34 32 31 27 21 17 16 16 16 14 10 7 6 6
0 0 0 0 0 0 0 0 0 0 0 0 0 0 0 1 2 4 8 13 18 20 22 26 31 34 36 37 37 36 34 32 30 27 22 17 15 15 15 13 10 7 6 5
0 0 0 0 0 0 0 0 0 0 0 0 0 0 0 0 1 3 7 13 18 19 19 24 30 35 37 37 36 34 33 33 32 29 23 17 14 13 12 11 9 7 6 5
0 0 0 0 0 0 0 0 0 0 0 0 0 0 0 0 0 2 6 12 16 17 17 19 24 28 30 32 33 32 32 33 32 29 23 17 13 11 10 10 8 7 6 4
0 0 0 0 0 0 0 0 0 0 0 0 0 0 0 0 0 1 4 9 14 16 16 16 18 19 20 23 26 28 29 29 29 27 21 16 13 11 9 8 8 7 6 4
0 0 0 0 0 0 0 0 0 0 0 0 0 0 0 0 1 1 3 8 12 14 14 14 14 14 14 16 20 24 26 26 25 22 18 14 13 11 9 8 7 7 6 5
0 0 0 0 0 0 0 0 0 0 0 0 0 0 0 1 2 3 4 6 9 11 12 14 14 13 12 13 16 21 24 24 21 17 14 12 10 10 9 8 7 6 6 6
0 0 0 0 0 0 0 0 0 0 0 0 0 0 0 1 2 3 4 4 6 7 9 11 13 13 12 12 14 18 21 21 17 12 9 8 7 7 6 6 6 6 6 6
0 0 0 0 0 0 0 0 0 0 0 0 0 0 0 0 1 3 3 3 4 4 6 7 9 10 11 12 13 14 17 16 13 9 5 4 4 3 2 3 5 6 6 6
0 0 0 0 0 0 0 0 0 0 0 0 0 0 0 0 0 1 2 3 3 3 4 5 6 8 10 13 13 13 14 13 10 6 4 3 3 1 0 1 3 3 3 4
0 0 0 0 0 0 0 0 0 0 0 0 0 0 0 0 0 0 1 2 3 3 2 4 6 7 8 11 13 13 13 11 8 5 4 3 2 1 0 0 1 1 1 2
0 0 0 0 0 0 0 0 0 0 0 0 0 0 0 0 0 0 0 1 2 2 2 4 7 7 6 9 11 11 10 8 7 6 4 3 1 0 0 0 0 0 0 1
0 0 0 0 0 0 0 0 0 0 0 0 0 0 0 0 0 0 0 0 1 2 1 3 5 5 4 5 7 7 6 6 6 5 3 2 1 0 0 0 0 0 0 0
0 0 0 0 0 0 0 0 0 0 0 0 0 0 0 0 0 0 0 0 1 1 0 1 3 3 3 4 4 4 2 3 5 4 2 1 0 0 0 0 0 0 0 0
0 0 0 0 0 0 0 0 0 0 0 0 0 0 0 0 0 0 0 0 0 0 0 1 2 3 3 3 2 1 1 1 2 2 1 0 0 0 0 0 0 0 0 0
0 0 0 0 0 0 0 0 0 0 0 0 0 0 0 0 0 0 0 0 0 0 0 0 1 2 3 2 1 0 0 0 1 1 0 0 0 0 0 0 0 0 0 0
0 0 0 0 0 0 0 0 0 0 0 0 0 0 0 0 0 0 0 0 0 1 1 0 1 1 1 1 0 0 0 1 1 0 0 0 0 0 0 0 0 0 0 0
0 0 0 0 0 0 0 0 0 0 0 0 0 0 0 0 1 1 0 0 1 2 2 1 0 0 0 0 0 0 0 1 1 0 0 0 0 0 0 0 0 0 0 0
0 0 0 0 0 0 0 0 0 0 0 0 0 0 0 0 1 1 0 0 2 3 2 1 0 0 0 0 0 0 0 0 0 0 0 0 0 0 0 0 0 0 0 0
0 0 0 0 0 0 0 0 0 0 0 0 0 0 0 0 1 1 0 0 1 2 2 1 0 0 0 0 0 0 0 0 0 0 0 0 0 0 0 0 0 0 0 0
0 0 0 0 0 0 0 0 0 0 0 0 0 0 0 0 0 0 0 0 0 1 1 0 0 0 0 0 0 0 0 0 0 0 0 0 0 0 0 0 0 0 0 0
0 0 0 0 0 0 0 0 0 0 0 0 0 0 0 0 0 0 0 0 0 0 0 0 0 0 0 0 0 0 0 0 0 0 0 0 0 0 0 0 0 0 0 0
0 0 0 0 0 0 0 0 0 0 0 0 0 1 1 0 0 0 0 0 0 0 0 0 0 0 0 0 0 0 0 0 0 0 0 0 0 0 0 0 0 0 0 0
0 0 0 0 0 0 0 0 0 0 0 0 0 1 1 0 0 0 0 0 0 0 0 0 0 0 0 0 0 0 0 0 0 0 0 0 0 0 0 0 0 0 0 0
0 0 0 0 0 0 0 0 0 0 0 0 0 0 0 0 0 0 0 0 0 0 0 0 0 0 0 0 0 0 0 0 0 0 0 0 0 0 0 0 0 0 0 0
0 0 0 0 0 0 0 0 0 0 0 0 0 0 0 0 0 0 0 0 0 0 0 0 0 0 0 0 0 0 0 0 0 0 0 0 0 0 0 0 0 0 0 0

GEFSCGP_con_prob3kmehi_204.txt.gz
EHI
0 0 0 0 0 0 0 0 0 0 0 0 0 0 0 2 5 8 11 11 9 6 7 10 11 12 12 12 14 15 15 14 15 14 13 12 12 11 10 8 7 6 5 4
0 0 0 0 0 0 0 0 0 0 0 0 0 0 0 1 3 4 6 7 6 5 8 12 12 11 10 11 13 14 14 14 14 14 12 11 11 10 10 8 7 6 5 5
0 0 0 0 0 0 0 0 0 0 0 0 0 0 0 0 1 2 2 2 2 4 8 12 12 10 10 11 11 12 12 12 12 12 12 11 11 10 10 9 8 6 6 5
0 0 0 0 0 0 0 0 0 0 0 0 0 0 0 0 1 2 2 2 1 2 5 7 8 8 9 10 10 10 9 9 9 9 10 11 11 10 9 9 8 6 5 4
0 0 0 0 0 0 0 0 0 0 0 0 0 0 0 0 0 1 1 2 2 2 2 2 3 4 7 9 10 11 10 8 6 6 7 8 8 8 7 7 6 5 3 2
0 0 0 0 0 0 0 0 0 0 0 0 0 0 0 0 0 0 0 1 1 1 1 1 1 3 5 7 9 10 10 7 5 5 6 6 5 5 5 4 4 3 2 1
0 0 0 0 0 0 0 0 0 0 0 0 0 0 0 0 0 0 0 0 0 1 2 2 3 3 3 4 6 8 7 6 5 7 7 6 5 3 3 3 2 1 1 1
0 0 0 0 0 0 0 0 0 0 0 0 0 0 0 0 0 0 0 0 0 1 3 3 3 3 3 3 4 6 6 6 6 7 7 5 3 1 1 1 0 1 1 1
0 0 0 0 0 0 0 0 0 0 0 0 0 0 0 0 0 0 0 0 0 1 2 3 3 3 3 2 3 5 6 6 6 6 5 4 2 0 0 0 0 0 0 0
0 0 0 0 0 0 0 0 0 0 0 0 0 0 0 0 0 0 0 1 1 2 3 3 3 3 2 2 3 4 6 6 6 5 4 3 1 0 0 0 0 0 0 0
0 0 0 0 0 0 0 0 0 0 0 0 0 0 0 0 0 0 0 1 2 2 2 2 2 2 2 2 3 4 5 6 5 4 3 1 1 0 0 0 0 0 0 0
0 0 0 0 0 0 0 0 0 0 0 0 0 0 0 0 0 0 0 0 1 1 1 1 1 1 1 2 3 4 5 4 4 2 1 0 0 0 0 0 0 0 0 0
0 0 0 0 0 0 0 0 0 0 0 0 0 0 0 0 0 0 0 0 0 0 0 0 0 0 0 1 1 2 3 3 2 1 0 0 0 0 0 0 0 0 0 0
0 0 0 0 0 0 0 0 0 0 0 0 0 0 0 0 0 0 0 0 0 0 0 0 0 0 0 0 0 1 1 1 1 1 0 0 0 0 0 0 0 0 0 0
0 0 0 0 0 0 0 0 0 0 0 0 0 0 0 0 0 0 0 0 0 0 0 0 0 0 0 0 0 0 0 0 0 0 0 0 0 0 0 0 0 0 0 0
0 0 0 0 0 0 0 0 0 0 0 0 0 0 0 0 0 0 0 0 0 0 0 0 0 0 0 0 0 0 0 0 0 0 0 0 0 0 0 0 0 0 0 0
0 0 0 0 0 0 0 0 0 0 0 0 0 0 0 0 0 0 0 0 0 0 0 0 0 0 0 0 0 0 0 0 0 0 0 0 0 0 0 0 0 0 0 0
0 0 0 0 0 0 0 0 0 0 0 0 0 0 0 0 0 0 0 0 0 0 0 0 0 0 0 0 0 0 0 0 0 0 0 0 0 0 0 0 0 0 0 0
0 0 0 0 0 0 0 0 0 0 0 0 0 0 0 0 0 0 0 0 0 0 0 0 0 0 0 0 0 0 0 0 0 0 0 0 0 0 0 0 0 0 0 0
0 0 0 0 0 0 0 0 0 0 0 0 0 0 0 0 0 0 0 0 0 0 0 0 0 0 0 0 0 0 0 0 0 0 0 0 0 0 0 0 0 0 0 0
0 0 0 0 0 0 0 0 0 0 0 0 0 0 0 0 0 0 0 0 0 0 0 0 0 0 0 0 0 0 0 0 0 0 0 0 0 0 0 0 0 0 0 0
0 0 0 0 0 0 0 0 0 0 0 0 0 0 0 0 0 0 0 0 0 0 0 0 0 0 0 0 0 0 0 0 0 0 0 0 0 0 0 0 0 0 0 0
0 0 0 0 0 0 0 0 0 0 0 0 0 0 0 0 0 0 0 0 0 0 0 0 0 0 0 0 0 0 0 0 0 0 0 0 0 0 0 0 0 0 0 0
0 0 0 0 0 0 0 0 0 0 0 0 0 0 0 0 0 0 0 0 0 0 0 0 0 0 0 0 0 0 0 0 0 0 0 0 0 0 0 0 0 0 0 0
0 0 0 0 0 0 0 0 0 0 0 0 0 0 0 0 0 0 0 0 0 0 0 0 0 0 0 0 0 0 0 0 0 0 0 0 0 0 0 0 0 0 0 0
0 0 0 0 0 0 0 0 0 0 0 0 0 0 0 0 0 0 0 0 0 0 0 0 0 0 0 0 0 0 0 0 0 0 0 0 0 0 0 0 0 0 0 0

GEFSCGP_con_prob3kmehi_210.txt.gz
EHI
0 0 0 0 0 0 0 0 0 0 0 0 0 0 0 0 1 2 7 12 16 17 17 15 13 12 14 16 19 22 25 30 33 34 34 34 30 23 18 16 14 13 13 13
0 0 0 0 0 0 0 0 0 0 0 0 0 0 0 0 1 4 7 10 13 16 19 17 14 12 13 14 16 21 27 30 32 32 31 31 29 23 18 15 13 12 13 14
0 0 0 0 0 0 0 0 0 0 0 0 0 0 0 1 2 3 4 5 8 13 17 17 15 13 12 12 14 19 25 29 30 30 29 28 26 22 18 15 14 13 15 16
0 0 0 0 0 0 0 0 0 0 0 0 0 0 0 1 2 2 1 2 4 8 11 13 13 11 10 11 14 17 21 24 26 27 28 27 24 21 18 18 16 16 16 15
0 0 0 0 0 0 0 0 0 0 0 0 0 0 0 0 1 1 0 1 3 5 8 10 10 8 8 9 11 15 19 20 22 22 25 27 25 22 20 19 19 17 15 14
0 0 0 0 0 0 0 0 0 0 0 0 0 0 1 0 0 0 0 1 3 3 5 8 9 9 9 9 11 15 19 21 20 18 20 24 25 25 23 20 18 17 15 13
0 0 0 0 0 0 0 0 0 0 0 0 0 0 0 0 0 0 1 2 3 4 6 9 10 10 10 11 12 15 19 21 20 17 17 20 23 24 23 20 17 15 13 12
0 0 0 0 0 0 0 0 0 0 0 0 0 0 0 0 0 0 1 2 4 6 7 8 9 9 9 10 11 14 18 20 19 18 17 19 20 21 21 19 15 13 12 11
0 0 0 0 0 0 0 0 0 0 0 0 0 0 0 0 0 0 0 1 3 5 7 7 6 5 6 7 9 11 14 15 17 17 18 18 18 17 18 16 13 10 9 8
0 0 0 0 0 0 0 0 0 0 0 0 0 0 0 0 0 0 0 1 2 4 5 5 4 4 4 5 7 9 10 11 12 14 16 16 15 14 14 12 9 6 4 4
0 0 0 0 0 0 0 0 0 0 0 0 0 0 0 0 0 0 0 0 1 2 4 4 4 5 5 6 7 8 8 9 9 10 12 13 12 11 9 7 5 4 2 1
0 0 0 0 0 0 0 0 0 0 0 0 0 0 0 0 0 0 0 0 0 1 3 4 4 5 6 6 7 7 8 8 9 9 9 10 10 9 7 5 4 4 3 1
0 0 0 0 0 0 0 0 0 0 0 0 0 0 0 0 0 0 0 1 1 1 2 3 2 3 4 6 5 5 7 8 8 9 8 8 9 8 6 5 5 5 4 2
0 0 0 0 0 0 0 0 0 0 0 0 0 0 0 0 0 0 1 2 1 1 1 1 1 2 3 4 4 3 4 6 7 9 8 7 7 7 7 6 6 5 3 1
0 0 0 0 0 0 0 0 0 0 0 0 0 0 0 0 0 0 1 1 1 0 0 1 1 2 2 3 2 1 2 3 5 8 8 6 5 6 6 6 5 4 1 0
0 0 0 0 0 0 0 0 0 0 0 0 0 0 0 0 0 0 0 0 0 0 0 1 1 1 1 1 1 1 3 4 5 6 6 5 4 4 5 5 4 2 1 0
0 0 0 0 0 0 0 0 0 0 0 0 0 0 0 0 1 1 1 1 0 0 0 1 2 1 1 1 1 1 3 5 4 5 5 4 3 3 4 4 3 2 0 0
0 0 0 0 0 0 0 0 0 0 0 0 0 0 0 0 1 2 3 3 1 1 1 2 3 3 3 2 1 1 3 4 4 4 5 4 3 3 3 3 3 2 1 0
0 0 0 0 0 0 0 0 0 0 0 0 0 0 0 0 1 1 3 3 3 2 3 4 4 3 3 2 1 1 2 2 2 2 3 4 4 3 3 3 3 2 1 0
0 0 0 0 0 0 0 0 0 0 0 0 0 0 0 0 0 1 1 2 3 4 5 5 4 3 2 1 0 0 1 1 0 1 2 3 3 3 3 3 2 1 0 0
0 0 0 0 0 0 0 0 0 0 0 0 0 0 0 1 1 1 1 2 4 5 6 5 4 2 1 0 0 0 0 0 0 1 2 2 2 3 3 2 1 0 0 0
0 0 0 0 0 0 0 0 0 0 0 0 0 0 0 1 1 1 2 4 5 5 6 5 3 1 0 0 0 0 0 1 1 1 1 1 1 1 1 1 0 0 0 0
0 0 0 0 0 0 0 0 0 0 0 0 0 0 0 0 1 2 4 5 5 4 4 4 2 1 0 0 0 0 0 1 2 2 1 0 0 0 0 0 0 0 0 0
0 0 0 0 0 0 0 0 0 0 0 0 0 0 0 0 1 3 5 5 4 3 3 2 1 0 0 0 0 0 0 1 2 1 0 0 0 0 0 0 0 0 0 0
0 0 0 0 0 0 0 0 0 0 0 0 0 1 1 1 1 2 3 3 2 2 2 1 0 0 0 0 0 0 0 0 0 0 0 0 0 0 0 0 0 0 0 0
0 0 0 0 0 0 0 0 0 0 0 0 0 1 2 1 0 1 1 1 1 1 1 0 0 0 0 0 0 0 0 0 0 0 0 0 0 0 0 0 0 0 0 0

GEFSCGP_con_prob3kmehi_216.txt.gz
EHI
0 0 0 0 0 0 0 0 0 0 0 0 0 1 3 3 3 6 10 14 19 23 24 25 26 28 32 37 40 42 44 47 47 42 37 32 30 32 32 32 31 28 24 23
0 0 0 0 0 0 0 0 0 0 0 0 0 1 3 3 4 7 10 12 15 20 23 23 25 26 31 37 40 41 43 44 43 40 37 35 34 33 30 29 28 26 24 23
0 0 0 0 0 0 0 0 0 0 0 0 0 0 1 3 5 6 7 8 11 19 23 23 22 22 25 31 35 37 39 39 35 34 34 36 36 32 26 24 26 25 23 22
0 0 0 0 0 0 0 0 0 0 0 0 0 0 1 4 5 5 5 6 9 16 21 21 19 19 19 23 28 32 33 32 30 29 31 34 35 29 23 22 25 26 23 22
0 0 0 0 0 0 0 0 0 0 0 0 0 1 2 4 4 4 6 8 10 13 15 16 16 16 16 19 24 28 28 28 28 29 31 33 31 27 25 24 24 24 23 21
0 0 0 0 0 0 0 0 0 0 0 0 0 1 2 3 4 4 6 10 12 13 13 15 15 16 17 20 22 24 25 26 28 29 31 30 27 25 27 26 24 22 20 20
0 0 0 0 0 0 0 0 0 0 0 0 0 1 2 2 2 4 6 9 13 14 15 17 18 19 20 20 20 21 22 25 28 29 28 25 23 23 25 25 22 19 18 18
0 0 0 0 0 0 0 0 0 0 0 0 0 0 1 1 1 2 4 7 11 15 16 17 18 19 19 18 17 18 21 24 28 28 26 23 21 20 20 20 18 16 15 15
0 0 0 0 0 0 0 0 0 0 0 0 0 0 0 0 0 0 2 5 10 13 12 13 15 16 16 16 15 17 20 23 25 25 23 21 19 17 15 15 16 15 13 12
0 0 0 0 0 0 0 0 0 0 0 0 0 0 0 1 1 0 2 5 9 10 9 9 11 13 13 13 13 15 17 19 19 19 19 17 16 14 13 13 14 15 12 10
0 0 0 0 0 0 0 0 0 0 0 0 0 0 1 2 3 2 3 5 8 9 8 7 9 10 11 10 10 11 13 13 14 15 14 12 12 12 12 11 12 12 11 9
0 0 0 0 0 0 0 0 0 0 0 0 0 0 1 3 5 4 4 5 6 7 7 8 8 8 8 8 8 9 9 9 10 10 10 9 9 9 10 9 9 9 8 7
0 0 0 0 0 0 0 0 0 0 0 0 0 1 2 3 4 4 3 3 3 4 6 8 8 6 6 7 8 8 9 9 9 9 9 8 8 8 8 8 8 7 6 6
0 0 0 0 0 0 0 0 0 0 0 0 0 1 1 1 2 4 3 1 1 2 4 7 7 6 6 6 7 9 9 9 10 11 11 11 11 10 9 8 8 7 6 6
0 0 0 0 0 0 0 0 0 0 0 0 0 0 0 1 2 4 3 1 1 1 3 6 7 6 5 4 5 7 8 9 9 10 10 11 12 10 9 8 7 6 6 5
0 0 0 0 0 0 0 0 0 0 0 0 0 0 1 1 2 3 2 1 1 1 3 5 6 6 4 3 3 4 5 6 6 6 7 8 8 8 7 6 6 6 5 4
0 0 0 0 0 0 0 0 0 0 0 0 0 0 1 2 2 2 2 2 1 2 4 5 5 5 5 4 3 3 3 4 4 4 4 4 4 4 4 4 4 5 4 4
1 1 0 0 0 0 0 0 0 0 0 0 0 0 1 2 2 3 4 3 2 3 5 7 6 5 5 4 3 3 3 3 3 3 3 3 2 1 2 3 4 5 5 4
0 0 0 0 0 0 0 0 0 0 0 0 0 0 1 2 2 3 4 4 3 4 7 9 8 6 5 5 4 3 3 3 3 3 4 3 2 0 1 2 4 5 5 4
0 0 0 0 0 0 0 0 0 0 0 0 0 0 1 1 1 1 3 4 5 6 8 10 9 8 8 7 5 3 3 3 3 3 3 3 1 0 0 1 3 3 3 3
0 0 0 0 0 0 0 0 0 0 0 0 0 0 0 1 0 0 2 4 6 6 7 9 10 10 9 8 6 4 3 3 3 4 3 3 1 0 0 1 2 2 1 1
0 0 0 0 0 0 0 0 0 0 0 0 0 0 0 1 1 1 3 5 6 5 6 8 11 11 10 7 5 3 3 3 3 4 3 3 2 1 0 0 1 2 2 1
0 0 0 0 0 0 0 0 0 0 0 0 0 0 1 1 2 3 5 6 5 5 6 8 10 10 8 6 3 2 2 2 2 2 2 3 2 1 0 0 0 1 1 1
0 0 0 0 0 0 0 0 0 0 0 0 0 1 2 3 3 4 5 4 4 4 5 7 7 6 4 3 1 1 2 1 0 0 1 3 3 1 0 0 0 0 0 0
1 0 0 0 0 0 0 0 0 0 0 0 1 1 2 2 2 3 3 3 3 3 4 5 4 2 1 1 0 1 2 1 0 0 1 2 3 2 0 0 0 0 0 0
1 1 0 0 0 0 0 0 0 0 0 1 3 2 1 1 1 1 1 1 2 3 4 4 2 1 0 0 1 2 2 1 0 0 1 2 3 1 0 0 0 0 0 0

GEFSCGP_con_prob3kmehi_222.txt.gz
EHI
0 0 0 0 0 0 0 0 0 0 0 0 1 0 1 2 5 9 11 10 9 8 8 10 13 14 12 10 11 13 14 12 9 8 10 8 6 7 7 6 5 5 6 5
0 0 0 0 0 0 0 0 0 0 0 0 1 0 0 1 4 8 10 9 8 7 8 11 13 14 13 11 10 11 12 11 8 8 8 7 6 6 5 5 5 5 7 7
0 0 0 0 0 0 0 0 0 0 0 0 0 0 0 1 4 7 9 9 7 5 7 11 13 13 12 11 10 10 10 8 8 9 10 9 7 6 3 3 3 5 6 6
0 0 0 0 0 0 0 0 0 0 0 0 0 0 0 1 4 7 9 9 7 6 7 9 10 11 11 11 11 11 8 6 6 9 11 11 9 5 2 1 2 3 4 4
0 0 0 0 0 0 0 0 0 0 0 0 0 0 0 1 2 5 8 9 7 6 7 8 9 10 12 13 12 10 7 4 4 7 8 9 8 5 2 1 1 3 3 3
0 0 0 0 0 0 0 0 0 0 0 0 0 0 0 1 1 3 6 8 6 5 5 8 10 11 12 13 12 9 6 4 4 5 6 7 7 5 4 2 1 3 3 3
0 0 0 0 0 0 0 0 0 0 0 0 0 0 1 2 2 4 6 8 7 5 5 6 9 10 10 10 9 8 6 5 4 5 7 7 6 5 5 3 3 3 3 2
0 0 0 0 0 0 0 0 0 0 0 0 0 0 1 1 2 4 6 7 7 6 4 4 6 7 6 5 6 6 6 6 6 5 6 6 6 5 5 4 4 4 4 3
0 0 0 0 0 0 0 0 0 0 0 0 0 0 0 0 1 1 3 4 5 4 3 2 3 3 2 3 5 5 5 5 5 4 4 5 5 5 6 6 6 5 5 4
0 0 0 0 0 0 0 0 0 0 0 0 0 0 0 0 0 0 1 2 3 3 1 1 1 1 1 2 3 4 4 4 4 4 4 4 4 4 5 6 6 5 4 3
0 0 0 0 0 0 0 0 0 0 0 0 0 0 0 0 0 0 0 1 3 2 1 0 0 0 0 1 3 3 4 4 3 4 4 3 4 4 4 5 5 3 2 2
0 0 0 0 0 0 0 0 0 0 0 0 0 0 0 0 0 0 0 1 2 2 1 1 0 0 0 1 2 4 4 4 3 3 3 4 4 4 3 4 4 3 2 2
0 0 0 0 0 0 0 0 0 0 0 0 0 0 0 0 0 0 0 1 2 2 2 2 1 1 1 1 3 3 4 4 3 3 4 4 4 3 2 2 2 2 2 2
0 0 0 0 0 0 0 0 0 0 0 0 0 0 0 0 0 0 0 1 3 4 3 2 1 1 2 2 3 3 3 3 3 4 4 4 3 1 1 1 1 1 1 2
0 0 0 0 0 0 0 0 0 0 0 0 0 0 0 0 0 0 1 2 4 5 4 2 0 1 1 2 3 3 3 3 3 3 4 4 2 1 1 0 0 0 0 1
0 0 0 0 0 0 0 0 0 0 0 0 0 0 1 1 0 0 1 2 3 3 2 1 0 0 0 1 1 2 2 3 3 3 3 2 1 0 0 0 0 0 0 0
0 0 0 0 0 0 0 0 0 0 0 0 0 1 2 1 0 0 1 1 2 2 1 0 0 0 0 0 0 1 2 2 2 2 2 1 0 0 0 0 0 0 0 0
0 0 0 0 0 0 0 0 0 0 0 0 0 1 1 1 0 0 0 1 2 2 1 0 0 0 0 0 0 0 1 1 1 1 1 0 0 0 0 0 0 0 0 0
0 0 0 0 0 0 0 0 0 0 0 0 1 1 0 0 0 0 0 0 1 2 1 0 0 0 0 0 0 0 0 0 0 0 0 1 1 1 0 0 0 0 0 0
0 0 0 0 0 0 0 0 0 0 0 0 0 0 0 0 0 0 0 0 1 1 1 0 0 0 0 0 0 0 0 0 0 0 0 1 2 1 0 0 0 0 0 0
0 0 0 0 0 0 0 0 0 0 0 0 0 0 0 0 0 0 0 0 1 1 0 0 0 0 0 0 0 0 0 0 0 0 1 1 1 1 0 0 0 0 0 0
0 0 0 0 0 0 0 0 0 0 0 0 0 0 0 0 0 0 0 0 0 0 0 0 0 0 0 0 0 0 0 0 0 1 2 2 1 0 0 0 0 0 0 0
0 0 0 0 0 0 0 0 0 0 0 0 0 0 0 0 1 1 1 0 0 0 0 0 0 0 0 0 0 0 0 0 0 1 2 2 1 0 0 0 0 0 0 0
0 0 0 0 0 0 0 0 0 0 0 0 0 0 0 0 1 1 1 0 0 0 0 0 0 0 0 0 0 0 0 0 0 0 1 1 1 0 0 0 0 0 0 0
0 0 0 0 0 0 0 0 0 0 0 0 0 0 0 0 1 1 0 0 0 0 0 0 0 0 0 0 0 0 0 0 0 0 0 0 0 0 0 0 0 0 0 0
0 0 0 0 0 0 0 0 0 0 0 0 0 0 0 0 0 0 0 0 0 0 0 0 0 0 0 0 0 0 0 0 0 0 0 0 0 0 0 0 0 0 0 0

GEFSCGP_con_prob3kmehi_228.txt.gz
EHI
0 0 0 0 0 0 0 0 0 0 0 0 0 0 1 2 4 3 1 0 1 0 0 0 1 1 1 3 6 8 7 7 6 5 4 3 2 1 0 0 0 0 0 0
0 0 0 0 0 0 0 0 0 0 0 0 0 0 0 1 1 1 0 0 1 0 0 1 2 2 1 2 4 6 6 6 5 3 2 2 1 0 0 0 0 0 0 0
0 0 0 0 0 0 0 0 0 0 0 0 0 0 0 0 0 0 0 0 1 1 1 3 4 3 2 2 2 4 6 6 4 2 1 1 0 0 0 0 0 0 0 0
0 0 0 0 0 0 0 0 0 0 0 0 0 0 0 1 1 1 0 0 1 2 3 5 5 4 3 2 2 3 4 4 3 2 1 0 0 0 0 1 0 0 0 0
0 0 0 0 0 0 0 0 0 0 0 0 0 0 0 1 2 1 0 0 1 1 3 5 6 5 4 3 2 2 2 1 1 1 1 0 0 0 0 0 0 0 0 0
0 0 0 0 0 0 0 0 0 0 0 0 0 0 0 1 1 0 0 0 1 1 3 4 6 5 4 3 3 2 0 0 0 0 0 0 0 0 0 0 0 0 0 0
0 0 0 0 0 0 0 0 0 0 0 0 0 0 0 0 0 0 0 0 1 2 2 3 4 4 3 3 3 2 0 0 0 0 0 0 0 0 0 0 0 0 0 0
0 0 0 0 0 0 0 0 0 0 0 0 0 0 0 0 0 0 0 0 1 1 1 1 2 2 3 2 2 1 0 0 0 0 0 1 1 0 0 0 0 0 0 0
0 0 0 0 0 0 0 0 0 0 0 0 0 0 0 0 0 0 0 0 0 0 0 0 0 1 2 1 0 0 0 0 0 0 1 2 2 1 0 0 0 0 0 0
0 0 0 0 0 0 0 0 0 0 0 0 0 0 0 0 0 0 0 0 0 0 0 0 0 0 0 0 0 0 0 0 0 0 1 2 2 1 0 0 0 0 0 0
0 0 0 0 0 0 0 0 0 0 0 0 0 0 0 0 0 0 0 0 0 0 0 0 0 0 0 0 0 0 0 0 0 0 0 1 1 0 0 0 0 0 0 0
0 0 0 0 0 0 0 0 0 0 0 0 0 0 0 0 0 0 0 0 0 0 0 0 0 0 0 0 0 0 0 0 0 0 0 0 0 0 0 0 0 0 0 0
0 0 0 0 0 0 0 0 0 0 0 0 0 0 0 0 0 0 0 0 0 0 0 0 0 0 0 0 0 0 0 0 0 0 0 0 0 0 0 0 0 0 0 0
0 0 0 0 0 0 0 0 0 0 0 0 0 0 0 0 0 0 0 0 0 1 1 0 0 0 0 0 0 0 0 0 0 0 0 0 0 0 0 0 0 0 0 0
0 0 0 0 0 0 0 0 0 0 0 0 0 0 0 0 0 0 0 0 1 2 2 1 0 0 0 0 0 0 0 0 0 0 0 0 0 0 0 0 0 0 0 0
0 0 0 0 0 0 0 0 0 0 0 0 0 0 0 0 0 0 0 0 1 2 2 1 0 0 0 0 0 0 0 0 0 0 0 0 0 0 0 0 0 0 0 0
0 0 0 0 0 0 0 0 0 0 0 0 0 0 0 0 0 0 0 0 0 1 2 1 0 0 0 0 0 0 0 0 0 0 0 0 0 0 0 0 0 0 0 0
0 0 0 0 0 0 0 0 0 0 0 0 0 0 0 0 0 0 0 0 0 1 1 1 0 0 0 0 0 0 0 0 0 0 0 0 0 0 0 0 0 0 0 0
0 0 0 0 0 0 0 0 0 0 0 0 0 0 0 0 0 0 0 0 0 0 0 0 0 0 0 0 0 0 0 0 0 0 0 0 0 0 0 0 0 0 0 0
0 0 0 0 0 0 0 0 0 0 0 0 0 0 0 0 0 0 0 0 0 0 0 0 0 0 0 0 0 0 0 0 0 0 0 0 0 0 0 0 0 0 0 0
0 0 0 0 0 0 0 0 0 0 0 0 0 0 0 0 0 0 0 0 0 0 0 0 0 0 0 0 0 0 0 0 0 0 0 0 0 0 0 0 0 0 0 0
0 0 0 0 0 0 0 0 0 0 0 0 0 0 0 0 0 0 0 0 0 0 0 0 0 0 0 0 0 0 0 0 0 0 0 0 0 0 0 0 0 0 0 0
0 0 0 0 0 0 0 0 0 0 0 0 0 0 0 0 0 0 0 0 0 0 0 0 0 0 0 0 0 0 0 0 0 0 0 0 0 0 0 0 0 0 0 0
0 0 0 0 0 0 0 0 0 0 0 0 0 0 0 0 0 0 0 0 0 0 0 0 0 0 0 0 0 0 0 0 0 0 0 0 0 0 0 0 0 0 0 0
0 0 0 0 0 0 0 0 0 0 0 0 0 0 0 0 0 0 0 0 0 0 0 0 0 0 0 0 0 0 0 0 0 0 0 0 0 0 0 0 0 0 0 0
0 0 0 0 0 0 0 0 0 0 0 0 0 0 0 0 0 0 0 0 0 0 0 0 0 0 0 0 0 0 0 0 0 0 0 0 0 0 0 0 0 0 0 0

GEFSCGP_con_prob3kmehi_234.txt.gz
EHI
0 0 0 0 0 0 0 0 0 0 0 0 1 3 2 2 2 2 1 1 2 3 6 11 13 12 12 14 17 22 24 23 22 19 14 11 9 7 6 7 8 8 6 6
0 0 0 0 0 0 0 0 0 0 0 1 2 3 3 2 2 3 3 3 3 4 6 11 12 10 9 10 13 16 17 17 17 16 14 12 9 7 6 7 7 6 5 5
0 0 0 0 0 0 0 0 0 0 0 1 2 3 3 3 3 4 4 4 3 3 5 9 9 7 6 7 9 11 14 14 13 13 12 12 10 7 6 7 7 5 4 5
0 0 0 0 0 0 0 0 0 0 0 0 1 1 3 3 3 4 5 4 2 2 3 6 7 6 6 8 8 11 14 14 12 10 9 9 9 7 6 7 8 7 6 6
0 0 0 0 0 0 0 0 0 0 0 0 0 1 2 3 4 5 5 3 1 0 1 3 6 7 9 9 9 10 13 15 13 10 7 7 7 6 7 9 10 9 7 6
0 0 0 0 0 0 0 0 0 0 0 0 0 0 1 3 3 4 3 2 1 0 1 2 5 9 11 11 10 9 11 14 14 11 8 7 7 7 9 12 13 10 7 6
0 0 0 0 0 0 0 0 0 0 0 0 0 0 1 2 3 3 2 1 0 0 1 2 5 9 12 12 11 9 9 10 11 9 8 9 10 9 10 13 13 9 7 6
0 0 0 0 0 0 0 0 0 0 0 0 0 0 0 1 1 2 1 0 0 1 1 2 5 8 11 12 12 10 8 8 7 6 7 10 11 10 9 10 9 7 6 5
0 0 0 0 0 0 0 0 0 0 0 0 0 0 0 0 0 1 1 0 0 1 2 2 4 7 10 11 11 10 9 8 6 4 5 6 8 8 8 7 6 5 3 2
0 0 0 0 0 0 0 0 0 0 0 0 0 0 0 0 0 0 0 0 0 1 2 3 4 6 7 8 9 9 8 7 5 4 4 4 5 6 6 5 3 3 2 2
0 0 0 0 0 0 0 0 0 0 0 0 0 0 0 0 0 0 0 0 0 1 1 2 4 4 4 4 4 4 4 3 2 3 4 4 4 5 5 3 2 2 2 3
1 0 0 0 0 0 0 0 0 0 0 0 0 0 0 0 0 0 1 1 1 1 1 1 2 3 3 2 1 1 0 0 1 1 2 4 4 4 3 2 2 3 4 4
1 0 0 0 0 0 0 0 0 0 0 0 0 0 0 0 0 1 2 2 2 1 1 2 3 3 3 2 0 0 0 0 0 0 0 1 2 2 1 2 4 6 7 7
1 0 0 0 0 0 0 0 0 0 0 0 0 0 0 0 0 1 2 2 1 0 1 3 4 3 3 2 0 0 0 1 1 0 0 0 1 1 1 3 6 8 8 8
1 0 0 0 0 0 0 0 0 0 0 0 0 0 0 0 0 1 1 1 0 1 2 4 4 3 2 1 0 0 0 1 1 0 0 0 0 1 2 4 6 7 7 7
1 0 0 0 0 0 0 0 0 0 0 0 0 0 0 0 0 0 0 0 0 2 3 4 4 3 1 0 0 0 0 1 1 0 0 0 1 2 3 4 5 6 6 6
1 0 0 0 0 0 0 0 0 0 0 0 0 0 0 0 0 0 0 0 0 1 3 4 3 2 1 0 0 0 0 1 0 0 0 1 2 3 3 3 4 4 4 4
0 0 0 0 0 0 0 0 1 1 1 0 1 1 0 0 1 1 0 0 0 1 3 3 3 2 1 0 0 0 0 0 0 0 0 1 2 3 3 3 3 3 3 3
0 0 0 0 0 0 0 0 1 2 2 1 1 1 1 1 2 2 1 0 1 2 2 2 2 1 0 0 0 0 0 0 0 0 0 0 1 3 3 3 3 3 3 3
0 0 0 0 0 0 0 0 0 1 1 1 1 1 1 2 3 3 2 1 1 1 1 1 1 0 0 0 0 0 0 0 0 0 0 0 1 2 3 3 3 3 3 3
0 0 0 0 0 0 0 0 0 0 0 0 0 0 1 2 2 2 1 0 0 0 0 0 0 0 0 0 0 0 0 0 0 0 0 0 1 2 3 3 3 3 2 1
0 0 0 0 0 0 0 0 0 0 0 0 0 0 0 1 1 1 0 0 0 0 0 0 0 0 0 0 0 0 0 0 0 0 0 0 0 1 1 3 3 3 1 0
0 0 0 0 0 0 0 0 0 0 0 0 0 0 0 0 0 0 0 0 0 0 0 0 0 0 0 0 0 0 0 0 0 0 0 0 0 0 1 2 2 2 1 0
0 0 0 0 0 0 0 0 0 0 0 0 0 0 0 0 0 0 0 0 0 0 1 1 1 0 0 0 0 0 0 0 1 1 0 0 0 0 0 1 1 1 0 0
0 0 0 0 0 0 0 0 0 0 0 0 0 0 0 0 0 0 0 0 0 0 1 2 2 1 0 0 0 1 1 1 1 1 0 0 0 0 0 0 0 0 0 0
0 0 0 0 0 0 0 0 0 0 0 0 0 0 0 0 0 0 0 0 1 1 1 2 2 1 0 0 1 2 2 1 1 1 0 0 0 0 0 0 0 0 0 0

GEFSCGP_con_prob3kmehi_240.txt.gz
EHI
0 0 0 0 0 0 0 0 0 0 0 0 0 0 2 3 3 2 3 6 9 13 18 22 23 23 27 31 37 42 44 46 46 43 40 36 31 25 19 14 14 16 16 14
0 0 0 0 0 0 0 0 0 0 0 0 0 1 3 4 3 3 5 8 10 12 17 22 22 21 25 30 33 38 42 44 44 42 38 34 29 24 17 13 13 15 16 15
0 0 0 0 0 0 0 0 0 0 0 0 0 1 3 6 5 4 6 10 11 10 13 18 19 19 23 29 31 34 38 40 40 37 34 29 25 20 15 11 12 14 15 15
0 0 0 0 0 0 0 0 0 0 0 0 0 1 4 7 7 5 6 9 9 7 8 12 16 18 21 26 31 35 38 37 35 33 30 26 21 16 13 11 11 14 15 14
0 0 0 0 0 0 0 0 0 0 0 0 0 0 3 6 7 6 7 7 7 5 6 9 13 17 19 24 31 36 38 37 33 31 28 25 19 15 13 11 12 14 14 13
0 0 0 0 0 0 0 0 0 0 0 0 0 1 2 5 6 7 7 6 6 6 6 9 12 16 18 21 27 32 35 34 32 29 27 24 20 17 15 13 13 13 14 13
0 0 0 0 0 0 0 0 0 0 0 0 0 1 3 5 6 6 6 6 6 5 6 8 12 17 18 19 23 27 30 31 29 28 25 22 20 17 16 15 14 14 13 13
0 0 0 0 0 0 0 0 0 0 0 0 0 2 3 4 4 4 4 5 4 5 5 7 11 16 17 19 21 24 27 29 28 26 22 19 17 16 15 16 16 14 12 12
0 0 0 0 0 0 0 0 0 0 0 0 1 3 4 4 3 4 5 4 4 4 5 7 10 14 16 18 21 23 25 26 25 22 18 16 15 16 15 15 15 12 10 9
0 0 0 0 0 0 0 0 0 0 0 0 1 3 4 3 4 5 5 5 5 4 4 7 9 12 14 15 18 20 21 21 20 16 15 15 15 16 15 13 12 10 9 9
0 0 0 0 0 0 0 0 0 0 0 0 0 2 3 3 3 4 6 6 5 4 4 5 7 9 10 10 12 16 18 17 15 12 13 17 17 15 14 13 11 10 8 9
0 0 0 0 0 0 0 0 0 0 0 0 1 2 3 3 4 4 5 5 4 4 4 5 6 7 9 9 10 12 14 14 12 11 13 17 17 14 11 11 11 10 8 7
0 0 0 0 0 0 0 0 0 0 0 0 1 3 3 4 5 5 3 2 2 3 5 6 8 9 11 11 9 9 10 11 10 11 12 14 13 11 7 7 8 7 6 6
0 0 0 0 0 0 0 0 0 0 0 1 2 3 4 6 7 5 3 1 2 3 5 8 10 11 11 11 9 8 8 8 8 8 9 10 10 8 5 4 4 3 3 4
0 0 0 0 0 0 0 0 0 0 0 1 2 4 5 7 7 6 4 3 3 3 4 7 10 11 10 9 8 8 8 7 6 6 6 7 7 7 6 4 3 2 2 3
0 0 0 0 0 0 0 0 0 0 0 1 3 4 6 7 7 7 6 5 4 4 5 6 8 9 9 9 8 7 7 7 6 5 5 5 5 6 6 4 3 3 3 3
0 0 0 0 0 0 0 0 0 0 1 2 4 6 6 5 6 7 7 5 5 6 6 6 8 9 9 9 7 6 5 6 6 5 4 4 5 6 6 5 4 4 4 4
1 1 0 0 0 0 0 1 1 1 2 3 4 6 6 4 4 6 6 5 6 7 7 6 7 8 7 7 8 5 4 4 5 4 3 4 5 5 5 5 4 5 5 6
1 2 1 0 0 0 0 1 2 2 3 3 4 4 4 3 3 4 4 4 5 7 8 6 5 5 5 6 7 6 4 4 4 3 3 4 4 4 4 4 5 6 6 7
1 2 1 0 0 0 0 0 1 2 3 3 3 3 2 1 1 1 3 3 4 5 7 6 5 6 6 5 5 5 5 4 3 3 3 3 3 3 4 5 6 5 5 5
0 0 0 0 0 0 0 0 1 2 4 4 3 3 2 0 0 1 2 2 1 2 4 5 6 8 8 6 4 4 4 4 3 3 3 3 4 4 6 7 6 4 3 4
0 0 0 0 0 1 1 1 2 4 6 6 5 4 2 0 0 0 1 1 0 1 2 4 6 8 9 7 4 4 4 4 3 3 3 3 4 4 5 6 4 3 3 3
0 0 0 0 0 1 1 0 1 4 7 8 7 4 1 0 0 1 1 0 1 2 2 2 4 6 7 6 4 4 5 5 5 5 5 4 4 3 3 4 3 3 3 3
0 0 0 1 1 1 0 0 1 3 5 6 5 2 0 0 1 2 2 2 2 2 2 1 3 5 6 5 5 5 6 7 6 6 6 6 5 4 3 3 3 3 3 2
0 0 1 3 2 1 0 0 1 2 3 3 2 0 0 0 1 3 3 3 2 1 1 1 2 4 5 6 7 7 6 7 7 7 6 6 5 4 3 3 3 3 2 2
0 1 2 4 4 1 0 0 1 2 3 1 0 0 0 1 2 3 3 3 2 1 0 1 2 3 4 6 8 8 7 7 8 7 6 6 5 4 3 3 3 2 2 3

GEFSCGP_con_prob3kmehi_246.txt.gz
EHI
0 0 0 0 0 0 0 0 0 1 2 3 2 1 1 2 3 4 3 3 3 3 3 3 4 6 8 9 8 8 9 10 10 10 9 7 5 3 2 2 2 2 3 3
0 0 0 0 0 0 0 0 0 1 1 2 1 1 2 3 4 4 3 4 3 3 3 2 2 5 8 8 8 8 9 10 10 10 9 7 5 2 1 1 1 1 2 2
0 0 0 0 0 0 0 0 0 0 0 0 0 1 1 2 3 4 4 5 4 3 3 2 3 6 7 7 8 9 10 10 11 10 9 7 4 2 1 0 0 0 1 1
0 0 0 0 0 0 0 0 0 0 0 0 0 0 1 2 3 4 5 5 4 4 4 5 7 8 7 7 8 9 9 10 10 10 9 6 4 3 1 0 0 0 0 0
0 0 0 0 0 0 0 0 0 0 0 0 0 1 2 3 3 4 5 6 5 5 6 8 10 10 8 7 8 9 10 10 9 9 8 6 4 3 2 1 1 0 0 0
0 0 0 0 0 0 0 0 0 0 0 0 0 1 2 3 3 3 5 6 6 6 6 7 9 10 9 8 8 9 10 9 8 7 6 4 3 3 3 3 2 1 0 0
0 0 0 0 0 0 0 0 0 0 0 0 0 0 1 3 3 3 5 7 6 5 4 5 6 8 9 9 9 9 8 8 7 5 4 3 3 3 3 2 2 1 0 0
0 0 0 0 0 0 0 0 0 0 0 0 0 0 1 3 3 3 4 6 6 4 3 3 4 5 6 7 7 7 7 7 6 4 3 3 2 2 1 1 1 0 0 0
0 0 0 0 0 0 0 0 0 0 0 0 0 1 2 3 3 3 4 6 6 3 1 3 3 4 4 4 4 5 6 7 5 3 2 1 1 1 0 0 0 0 0 0
0 0 0 0 0 0 0 0 0 0 0 0 0 1 2 3 3 3 4 6 6 3 1 2 3 3 2 2 4 4 5 5 4 2 1 0 0 0 0 0 0 0 0 0
0 0 0 0 0 0 0 0 0 0 0 0 0 0 1 3 3 3 4 5 4 2 1 2 3 1 1 2 3 4 4 4 3 2 1 1 0 0 0 0 0 0 0 0
0 0 0 0 0 0 0 0 0 0 0 0 0 0 1 2 3 3 3 3 2 1 1 2 2 1 0 1 2 3 3 3 3 2 2 1 0 0 0 0 0 0 0 0
0 0 0 0 0 0 0 0 0 0 0 0 0 0 1 2 3 3 3 2 1 0 0 1 1 0 1 2 3 3 3 3 2 2 1 1 0 0 0 0 0 0 0 0
0 0 0 0 0 0 0 0 0 0 0 0 0 0 1 2 2 2 1 1 0 0 0 1 1 0 1 2 3 3 3 2 1 1 0 0 0 0 0 0 0 0 0 0
0 0 0 0 0 0 0 0 0 0 0 0 0 0 0 1 1 1 0 0 0 0 0 1 1 0 0 1 2 2 1 1 0 0 0 0 0 0 0 0 0 0 0 0
0 0 0 0 0 0 0 0 0 0 0 0 0 0 0 0 0 0 0 0 0 0 0 1 1 0 0 0 1 1 0 0 0 0 0 0 0 0 0 0 0 0 0 0
0 0 0 0 0 0 0 0 0 0 0 0 0 0 0 0 0 0 0 0 0 0 0 0 0 1 1 1 0 0 0 0 0 0 0 0 0 0 0 0 0 0 0 0
0 0 0 0 0 0 0 0 0 0 0 0 0 1 0 0 0 0 0 0 0 0 0 0 1 2 2 2 1 0 0 0 0 0 0 0 0 0 0 0 0 0 0 0
0 0 0 0 0 0 0 0 0 0 0 0 0 0 0 0 0 0 0 0 0 0 0 0 1 2 3 2 1 0 0 0 0 0 0 0 0 0 0 0 0 0 0 0
0 0 0 0 0 0 0 0 0 0 0 0 0 0 0 0 0 0 0 0 0 0 0 0 0 1 1 1 1 0 0 0 0 0 0 0 0 0 0 0 0 0 0 0
0 0 0 0 0 0 0 0 0 0 0 0 0 0 0 0 0 0 0 0 0 0 0 0 0 0 0 0 0 0 0 0 0 0 0 0 0 0 0 0 0 0 0 0
0 0 0 0 0 0 0 0 0 0 0 0 0 0 0 0 0 0 0 0 0 0 0 0 0 0 0 0 0 0 0 0 0 0 0 0 0 0 0 0 0 0 0 0
0 0 0 0 0 0 0 0 0 0 0 0 0 0 0 0 0 0 0 0 0 0 0 0 0 0 0 0 0 0 0 0 0 0 0 0 0 0 0 0 0 0 0 0
0 0 0 0 0 1 1 0 0 0 0 0 0 0 0 0 0 0 0 0 0 0 0 0 0 0 0 0 0 0 0 0 0 0 0 0 0 0 0 0 0 0 0 0
0 0 0 0 0 1 1 0 0 0 0 0 0 0 0 0 0 0 0 0 0 0 0 0 0 0 0 0 0 0 0 0 0 0 0 0 0 0 0 0 0 0 0 0
0 0 0 0 0 1 1 0 0 0 0 0 0 0 0 0 0 0 0 0 0 0 0 0 0 0 0 0 0 0 0 0 0 0 0 0 0 0 0 0 0 0 0 0

GEFSCGP_con_prob3kmehi_252.txt.gz
EHI
0 0 0 0 0 0 0 0 0 0 0 0 0 1 3 4 4 4 5 5 5 6 7 5 4 4 4 5 4 2 0 0 1 3 4 3 1 0 0 0 0 0 1 1
0 0 0 0 0 0 0 0 0 0 0 0 0 1 3 4 3 4 5 5 5 6 6 4 2 2 3 5 4 3 1 2 3 4 5 5 2 0 0 0 0 0 0 1
0 0 0 0 0 0 0 0 0 0 0 0 0 1 2 3 3 3 4 4 4 5 5 3 1 0 1 2 3 3 4 5 7 8 9 9 5 1 0 0 0 0 0 0
0 0 0 0 0 0 0 0 0 0 0 0 0 1 2 3 3 3 3 3 3 4 3 2 1 0 0 1 2 4 6 9 11 12 12 12 9 4 1 1 0 0 0 0
0 0 0 0 0 0 0 0 0 0 0 0 0 0 1 3 3 2 1 2 3 3 1 1 0 0 0 0 2 5 8 10 11 12 12 12 10 6 3 1 0 0 0 0
0 0 0 0 0 0 0 0 0 0 0 0 0 0 1 2 3 2 1 1 3 2 1 0 0 0 0 0 2 6 8 9 10 10 10 9 7 5 3 1 0 0 0 0
0 0 0 0 0 0 0 0 0 0 0 0 0 0 0 1 3 3 2 2 2 2 1 1 0 0 0 1 3 6 7 7 8 8 7 5 3 2 1 0 0 0 0 0
0 0 0 0 0 0 0 0 0 0 0 0 0 0 0 1 2 3 3 3 2 1 0 0 0 0 1 2 4 6 6 6 6 6 5 3 1 0 0 0 0 0 0 0
0 0 0 0 0 0 0 0 0 0 0 0 0 0 0 0 2 3 3 3 2 1 0 0 0 0 1 2 3 5 6 6 5 4 3 2 1 0 0 0 0 0 0 0
0 0 0 0 0 0 0 0 0 0 0 0 0 0 0 1 2 3 3 3 2 1 0 0 0 0 1 1 2 4 5 5 4 3 3 2 1 0 0 0 0 0 0 0
0 0 0 0 0 0 0 0 0 0 0 0 0 0 0 1 2 3 3 3 2 1 0 0 0 0 0 0 1 3 4 4 3 3 3 3 1 0 0 0 0 0 0 0
0 0 0 0 0 0 0 0 0 0 0 0 0 0 0 1 2 3 3 3 2 1 0 0 0 0 0 0 1 2 3 3 3 3 3 3 2 1 0 0 0 0 0 0
0 0 0 0 0 0 0 0 0 0 0 0 0 0 0 1 2 3 3 3 1 0 0 0 0 0 0 0 0 1 2 3 3 3 3 3 3 1 1 0 0 0 0 0
0 0 0 0 0 0 0 0 0 0 0 0 0 0 0 1 2 3 3 2 1 0 0 0 0 0 0 0 0 0 1 2 2 2 2 2 2 2 1 0 0 0 0 0
0 0 0 0 0 0 0 0 0 0 0 0 0 0 0 1 2 3 3 1 0 0 0 0 0 0 0 0 0 0 0 1 1 1 1 1 1 1 1 0 0 0 0 0
0 0 0 0 0 0 0 0 0 0 0 0 0 0 0 1 2 3 2 1 0 0 0 0 0 0 0 0 0 0 0 0 0 0 0 0 0 0 0 0 0 0 0 0
0 0 0 0 0 0 0 0 0 0 0 0 0 0 0 1 2 3 1 0 0 0 0 0 0 0 0 0 0 0 0 0 0 0 0 0 0 0 0 0 0 0 0 0
0 0 0 0 0 0 0 0 0 0 0 0 0 0 0 1 2 2 1 0 0 0 0 0 0 0 0 0 0 0 0 0 0 0 0 0 0 0 0 0 0 0 0 0
0 0 0 0 0 0 0 0 0 0 0 0 0 0 0 0 1 1 0 0 0 0 0 0 0 0 0 0 0 0 0 0 0 0 0 0 0 0 0 0 0 0 0 0
0 0 0 0 0 0 0 0 0 0 0 0 0 0 0 0 0 0 0 0 0 0 0 0 0 0 0 0 0 0 0 0 0 0 0 0 0 0 0 0 0 0 0 0
0 0 0 0 0 0 0 0 0 0 0 0 0 0 0 0 0 0 0 0 0 0 0 0 0 0 0 0 0 0 0 0 0 0 0 0 0 0 0 0 0 0 0 0
0 0 0 0 0 0 0 0 0 0 0 0 0 0 0 0 0 0 0 0 0 0 0 0 0 0 0 0 0 0 0 0 0 0 0 0 0 0 0 0 0 0 0 0
0 0 0 0 0 0 0 0 0 0 0 0 0 0 0 0 0 0 0 0 0 0 0 0 0 0 0 0 0 0 0 0 0 0 0 0 0 0 0 0 0 0 0 0
0 0 0 0 0 0 0 0 0 0 0 0 0 0 0 0 0 0 0 0 0 0 0 0 0 0 0 0 0 0 0 0 0 0 0 0 0 0 0 0 0 0 0 0
0 0 0 0 0 0 0 0 0 0 0 0 0 0 0 0 0 0 0 0 0 0 0 0 0 0 0 0 0 0 0 0 0 0 0 0 0 0 0 0 0 0 0 0
0 0 0 0 0 0 0 0 0 0 0 0 0 0 0 0 0 0 0 0 0 0 0 0 0 0 0 0 0 0 0 0 0 0 0 0 0 0 0 0 0 0 0 0

GEFSCGP_con_prob3kmehi_258.txt.gz
EHI
0 0 0 0 0 0 0 0 0 0 0 0 0 0 0 0 2 5 6 7 7 7 6 7 8 8 8 9 11 13 16 18 18 17 17 14 12 12 11 8 7 7 6 4
0 0 0 0 0 0 0 0 0 0 0 0 0 0 0 0 1 4 5 6 6 7 6 6 7 8 8 9 11 14 17 18 18 17 16 14 11 10 9 8 7 6 5 4
0 0 0 0 0 0 0 0 0 0 0 0 0 0 0 0 1 2 2 3 5 6 6 6 7 7 7 8 11 15 18 19 19 17 14 12 10 8 8 8 8 7 6 5
0 0 0 0 0 0 0 0 0 0 0 0 0 0 0 0 0 1 1 2 5 7 6 6 6 7 6 6 9 15 18 20 21 20 15 12 11 9 9 9 9 10 9 8
0 0 0 0 0 0 0 0 0 0 0 0 0 0 0 0 0 0 0 1 5 7 6 5 5 5 6 6 8 13 17 19 21 22 19 16 14 13 12 11 12 13 12 10
0 0 0 0 0 0 0 0 0 0 0 0 0 0 0 0 0 0 1 2 4 5 4 4 4 4 6 6 8 12 15 17 19 20 19 18 17 16 15 14 14 15 14 12
0 0 0 0 0 0 0 0 0 0 0 0 0 0 0 0 0 1 2 3 3 4 4 3 4 4 5 6 7 11 13 14 16 17 17 17 18 18 17 15 13 14 13 11
0 0 0 0 0 0 0 0 0 0 0 0 0 0 0 0 0 1 2 3 3 4 4 3 3 3 4 4 6 8 10 12 12 12 14 15 16 16 15 13 12 11 10 9
0 0 0 0 0 0 0 0 0 0 0 0 0 0 0 0 0 1 2 2 3 3 4 4 3 3 4 4 5 7 9 9 8 8 10 12 12 13 11 10 9 9 8 7
0 0 0 0 0 0 0 0 0 0 0 0 0 0 0 0 0 1 2 1 1 2 4 5 4 4 4 5 7 8 8 7 6 6 7 7 9 9 8 6 6 7 7 6
0 0 0 0 0 0 0 0 0 0 0 0 0 0 0 0 0 1 2 2 1 2 3 4 4 4 5 6 7 7 5 4 5 6 5 6 7 7 5 4 5 6 7 7
0 0 0 0 0 0 0 0 0 0 0 0 0 0 0 0 0 0 2 3 3 4 4 4 3 3 4 5 5 5 3 2 3 4 4 6 6 5 4 3 4 7 8 7
0 0 0 0 0 0 0 0 0 0 0 0 0 0 0 0 0 1 2 3 4 5 5 3 2 2 2 3 4 4 3 3 2 2 4 6 6 4 3 3 4 6 7 6
0 0 0 0 0 0 0 0 0 0 0 0 0 0 0 0 0 2 3 3 3 3 3 1 0 0 0 1 2 3 2 2 2 3 4 5 5 4 3 3 4 4 4 4
0 0 0 0 0 0 0 0 0 0 0 0 0 0 0 0 0 1 3 3 2 1 1 0 0 0 0 0 1 1 1 1 2 2 2 3 4 3 3 3 4 4 2 1
0 0 0 0 0 0 0 0 0 0 0 0 0 0 0 0 0 1 2 2 1 0 0 0 0 0 1 1 2 1 1 1 1 1 0 1 2 3 3 3 3 3 1 0
0 0 0 0 0 0 0 0 0 0 0 0 0 0 0 0 1 2 2 1 0 0 0 0 1 1 1 2 3 2 1 0 0 0 0 0 1 3 3 3 3 3 1 0
0 0 0 0 0 0 0 1 0 0 0 0 0 0 0 0 1 2 2 1 0 0 1 1 2 2 1 1 2 2 1 0 0 0 0 0 0 1 2 3 3 2 2 1
0 0 0 0 0 0 0 0 0 0 0 0 0 0 0 0 1 3 2 1 2 2 2 2 2 1 0 0 1 2 2 1 1 0 0 0 0 0 1 2 1 1 1 1
0 0 0 0 0 0 0 0 0 0 0 0 0 0 0 1 2 3 3 2 3 4 3 1 1 0 0 0 1 2 2 2 2 1 0 0 0 0 0 0 0 0 0 0
0 0 0 0 0 0 0 0 0 1 1 1 1 0 1 2 2 3 3 2 3 4 2 1 0 0 0 0 0 1 1 2 2 1 0 0 0 0 0 0 0 0 0 0
0 0 0 0 0 0 0 1 1 1 1 1 1 1 1 2 3 2 2 1 2 3 3 2 1 0 0 0 0 0 0 1 1 0 0 1 2 1 1 1 1 1 1 0
0 0 0 0 0 0 0 1 1 1 1 1 1 1 1 2 2 1 0 0 1 2 2 2 1 1 0 0 0 0 0 0 0 0 1 2 2 2 2 2 2 2 2 1
1 1 0 0 0 0 0 0 1 0 0 1 1 0 1 1 1 0 0 0 0 1 1 1 0 0 0 0 0 0 0 0 0 1 1 1 1 2 3 3 3 3 2 2
0 0 0 0 0 0 0 0 0 0 0 0 0 0 0 0 0 0 0 0 0 0 0 0 0 0 0 0 0 0 1 1 1 1 1 0 0 1 1 2 2 2 2 2
0 0 0 0 0 0 0 0 0 0 0 0 0 0 0 0 0 0 0 0 0 0 0 0 0 0 0 0 0 1 2 2 2 1 0 0 0 0 0 1 2 1 1 1